Find Starlink 1815

NORAD ID: 46713 Int'l Des: 2020-073 Owner: SPXS Country: US Constellation: starlink operational
LEOCIRCULAR

Live Position

Loading 3D Globe...

About Starlink 1815

Description loading...

Upcoming Passes

Passes for default location (London). Set your location on the main map for personalized predictions.

Altitude History

Loading altitude history...

Two-Line Element Set

1 46713U 20073AV 26134.33334491 .00191056 00000-0 69449-3 0 9996
2 46713 53.0387 234.3059 0007213 320.1755 229.1488 15.87428231 6013
Epoch: May 14, 2026 • Age: 6 hours

Current Status

Altitude 314.8 km
Velocity 7.72 km/s
Sub-Earth Point 44.94°N, 153.49°W
Launch Date Oct 18, 2020
Age 5.5 years
Type internet

Technical Details

Classification Payload
Mass 260.00 kg
Dry Mass 248.00 kg
Total Mass 260.00 kg
Length 0.20 m
Diameter 2.80 m
Span 9.00 m
Shape Box + pan
Manufacturer SPXS
Bus Type Starlink
Phase Status In Orbit
Owner/State SPXS/US

Most Searched